Flag for U.S.A. Weather past 2 weeks in Glennallen, Alaska, U.S.A.

Now
39 °F

Light rain. Low clouds.


Feels Like: 39 °F
Forecast: 28 / 44 °F
Wind: No wind

Location: Gulkana Airport

Current Time: Sep 22, 2014 at 3:22:30 PM

Latest Report: Sep 22, 2014 at 2:53 PM


Visibility: 10 mi

Pressure: 29.77 "Hg

Humidity: 89%

Dew point: 36 °F

Location of GlennallenLocation

Historic Weather in Glennallen — Graph

°F

Glennallen temperature yesterday

Maximum temperature yesterday: 56 °F (at 3:53 PM)
Minimum temperature yesterday: 28 °F (at 7:53 AM)
Average temperature yesterday: 43 °F

Past Weeks' High & Low Weather Summary

 TemperatureHumidityPressure
High69 °F (Sep 13, 1:53 PM)100% (Sep 11, 4:53 AM)30.24 "Hg (Sep 11, 4:53 AM)
Low28 °F (Sep 8, 6:53 AM)42% (Sep 14, 2:53 PM)29.03 "Hg (Sep 18, 4:53 PM)
Average49 °F71%29.76 "Hg
* Reported Sep 7 2:53 PM — Sep 22 2:03 PM, Glennallen, Weather by CustomWeather, © 2014

Note: Actual official high and low records may vary slightly from our data, if they occured in-between our weather recording intervals... More about our weather records

Advertising

Glennallen weather history for previous 24 hours

 ConditionsComfort  
Time TempWeatherWind HumidityBarometerVisibility
2:03 PM
Sep 22
38 °FLight rain. More clouds than sun.No wind93%29.71 "Hg10 mi
1:53 PM38 °FLight rain. Cloudy.No wind90%29.76 "Hg10 mi
12:53 PM37 °FLight rain. Mostly cloudy.No wind93%29.73 "Hg10 mi
11:53 AM36 °FLight rain. Mostly cloudy.No wind92%29.71 "Hg10 mi
10:53 AM36 °FLight rain. Fog.5 mph92%29.68 "Hg4 mi
9:53 AM36 °FLight rain. Low clouds.3 mph92%29.65 "Hg9 mi
8:53 AM35 °FLight rain. Fog.5 mph92%29.60 "Hg3 mi
7:53 AM37 °FMostly cloudy.8 mph82%29.55 "Hg10 mi
6:53 AM38 °FOvercast.8 mph70%29.50 "Hg10 mi
5:53 AM40 °FOvercast.6 mph58%29.46 "Hg10 mi
4:53 AM40 °FOvercast.8 mph58%29.44 "Hg10 mi
3:53 AM41 °FOvercast.7 mph60%29.39 "Hg10 mi
2:53 AM42 °FPassing clouds.10 mph49%29.36 "Hg10 mi
1:53 AM42 °FPassing clouds.12 mph51%29.32 "Hg10 mi
12:53 AM42 °FPassing clouds.16 mph53%29.29 "Hg10 mi
11:53 PM
Sep 21
41 °FClear.13 mph58%29.28 "Hg10 mi
10:53 PM42 °FClear.10 mph55%29.28 "Hg10 mi
9:53 PM43 °FClear.12 mph58%29.28 "Hg10 mi
8:53 PM46 °FClear.12 mph56%29.28 "Hg10 mi
7:53 PM50 °FOvercast.7 mph54%29.31 "Hg10 mi
6:53 PM53 °FOvercast.9 mph48%29.32 "Hg10 mi
5:53 PM54 °FOvercast.7 mph51%29.34 "Hg10 mi
4:53 PM54 °FMore clouds than sun.10 mph51%29.38 "Hg10 mi
3:53 PM56 °FPassing clouds.9 mph49%29.40 "Hg10 mi
Weather by CustomWeather, © 2014

See weather overviewHow to use our weather pages